Time,TemperatureF,DewpointF,PressureIn,WindDirection,WindDirectionDegrees,WindSpeedMPH,WindSpeedGustMPH,Humidity,HourlyPrecipIn,Conditions,Clouds,dailyrainin,SoftwareType,DateUTC
2013-03-06 00:01:00,43.0,16.0,30.09,WSW,248,0.0,0.0,33,0.00,,,0.00,,2013-03-06 07:01:00,
2013-03-06 00:11:00,43.0,16.0,30.09,WSW,248,0.0,0.0,33,0.00,,,0.00,,2013-03-06 07:11:00,
2013-03-06 00:22:00,43.0,16.0,30.09,WSW,248,0.0,0.0,33,0.00,,,0.00,,2013-03-06 07:22:00,
2013-03-06 00:32:00,42.0,14.0,30.09,WSW,248,0.0,1.0,32,0.00,,,0.00,,2013-03-06 07:32:00,
2013-03-06 00:42:00,42.0,14.0,30.09,WSW,248,0.0,1.0,32,0.00,,,0.00,,2013-03-06 07:42:00,
2013-03-06 00:52:00,42.0,15.0,30.08,WSW,248,1.0,1.0,33,0.00,,,0.00,,2013-03-06 07:52:00,
2013-03-06 01:01:00,42.0,16.0,30.09,North,356,1.0,2.0,35,0.00,,,0.00,,2013-03-06 08:01:00,
2013-03-06 01:11:00,42.0,16.0,30.09,North,356,1.0,2.0,35,0.00,,,0.00,,2013-03-06 08:11:00,
2013-03-06 01:21:00,41.0,15.0,30.08,West,274,1.0,3.0,34,0.00,,,0.00,,2013-03-06 08:21:00,
2013-03-06 01:32:00,40.0,15.0,30.08,West,270,1.0,2.0,35,0.00,,,0.00,,2013-03-06 08:32:00,
2013-03-06 01:42:00,40.0,15.0,30.08,West,270,1.0,2.0,35,0.00,,,0.00,,2013-03-06 08:42:00,
2013-03-06 01:52:00,41.0,16.0,30.08,WNW,292,1.0,1.0,36,0.00,,,0.00,,2013-03-06 08:52:00,
2013-03-06 02:01:00,41.0,16.0,30.08,NW,315,1.0,2.0,36,0.00,,,0.00,,2013-03-06 09:01:00,
2013-03-06 02:12:00,41.0,16.0,30.08,NW,315,1.0,2.0,36,0.00,,,0.00,,2013-03-06 09:12:00,
2013-03-06 02:21:00,40.0,15.0,30.07,WSW,248,1.0,2.0,36,0.00,,,0.00,,2013-03-06 09:21:00,
2013-03-06 02:32:00,41.0,17.0,30.07,WSW,248,1.0,2.0,37,0.00,,,0.00,,2013-03-06 09:32:00,
2013-03-06 02:42:00,41.0,17.0,30.07,WSW,248,1.0,2.0,37,0.00,,,0.00,,2013-03-06 09:42:00,
2013-03-06 02:51:00,41.0,17.0,30.07,WSW,248,1.0,2.0,37,0.00,,,0.00,,2013-03-06 09:51:00,
2013-03-06 03:01:00,41.0,17.0,30.07,WSW,248,2.0,3.0,37,0.00,,,0.00,,2013-03-06 10:01:00,
2013-03-06 03:11:00,41.0,17.0,30.07,WSW,248,2.0,3.0,37,0.00,,,0.00,,2013-03-06 10:11:00,
2013-03-06 03:21:00,41.0,17.0,30.06,WSW,248,2.0,3.0,37,0.00,,,0.00,,2013-03-06 10:21:00,
2013-03-06 03:32:00,42.0,18.0,30.06,SW,225,1.0,2.0,37,0.00,,,0.00,,2013-03-06 10:32:00,
2013-03-06 03:42:00,42.0,18.0,30.06,SW,225,1.0,2.0,37,0.00,,,0.00,,2013-03-06 10:42:00,
2013-03-06 03:51:00,42.0,18.0,30.05,SW,225,1.0,1.0,37,0.00,,,0.00,,2013-03-06 10:51:00,
2013-03-06 04:02:00,41.0,17.0,30.05,West,270,0.0,1.0,37,0.00,,,0.00,,2013-03-06 11:02:00,
2013-03-06 04:11:00,41.0,17.0,30.05,West,270,0.0,1.0,37,0.00,,,0.00,,2013-03-06 11:11:00,
2013-03-06 04:22:00,40.0,16.0,30.05,WSW,238,0.0,0.0,38,0.00,,,0.00,,2013-03-06 11:22:00,
2013-03-06 04:32:00,40.0,16.0,30.06,NNW,338,0.0,0.0,38,0.00,,,0.00,,2013-03-06 11:32:00,
2013-03-06 04:42:00,40.0,16.0,30.06,NNW,338,0.0,0.0,38,0.00,,,0.00,,2013-03-06 11:42:00,
2013-03-06 04:52:00,40.0,16.0,30.05,NNW,338,0.0,0.0,38,0.00,,,0.00,,2013-03-06 11:52:00,
2013-03-06 05:02:00,40.0,16.0,30.05,NNW,338,0.0,0.0,38,0.00,,,0.00,,2013-03-06 12:02:00,
2013-03-06 05:11:00,40.0,16.0,30.05,NNW,338,0.0,0.0,38,0.00,,,0.00,,2013-03-06 12:11:00,
2013-03-06 05:21:00,40.0,16.0,30.05,NNW,338,0.0,0.0,38,0.00,,,0.00,,2013-03-06 12:21:00,
2013-03-06 05:32:00,39.0,16.0,30.05,NW,315,1.0,2.0,39,0.00,,,0.00,,2013-03-06 12:32:00,
2013-03-06 05:42:00,39.0,16.0,30.05,NW,315,1.0,2.0,39,0.00,,,0.00,,2013-03-06 12:42:00,
2013-03-06 05:52:00,39.0,16.0,30.05,WSW,248,0.0,2.0,39,0.00,,,0.00,,2013-03-06 12:52:00,
2013-03-06 06:02:00,39.0,16.0,30.06,WSW,248,0.0,0.0,39,0.00,,,0.00,,2013-03-06 13:02:00,
2013-03-06 06:12:00,39.0,16.0,30.06,WSW,248,0.0,0.0,39,0.00,,,0.00,,2013-03-06 13:12:00,
2013-03-06 06:22:00,39.0,17.0,30.05,WSW,248,0.0,0.0,40,0.00,,,0.00,,2013-03-06 13:22:00,
2013-03-06 06:32:00,39.0,17.0,30.05,WSW,248,0.0,0.0,40,0.00,,,0.00,,2013-03-06 13:32:00,
2013-03-06 06:42:00,39.0,17.0,30.05,WSW,248,0.0,0.0,40,0.00,,,0.00,,2013-03-06 13:42:00,
2013-03-06 06:52:00,38.0,16.0,30.06,WSW,256,1.0,1.0,40,0.00,,,0.00,,2013-03-06 13:52:00,
2013-03-06 07:01:00,38.0,16.0,30.06,West,259,1.0,2.0,40,0.00,,,0.00,,2013-03-06 14:01:00,
2013-03-06 07:11:00,38.0,16.0,30.06,West,259,1.0,2.0,40,0.00,,,0.00,,2013-03-06 14:11:00,
2013-03-06 07:22:00,38.0,16.0,30.05,WSW,248,1.0,1.0,41,0.00,,,0.00,,2013-03-06 14:22:00,
2013-03-06 07:32:00,39.0,17.0,30.05,WSW,248,0.0,0.0,40,0.00,,,0.00,,2013-03-06 14:32:00,
2013-03-06 07:42:00,39.0,17.0,30.05,WSW,248,0.0,0.0,40,0.00,,,0.00,,2013-03-06 14:42:00,
2013-03-06 07:52:00,41.0,19.0,30.05,WSW,248,0.0,0.0,40,0.00,,,0.00,,2013-03-06 14:52:00,
2013-03-06 08:02:00,41.0,18.0,30.06,WSW,248,0.0,0.0,39,0.00,,,0.00,,2013-03-06 15:02:00,
2013-03-06 08:11:00,41.0,18.0,30.06,WSW,248,0.0,0.0,39,0.00,,,0.00,,2013-03-06 15:11:00,
2013-03-06 08:21:00,44.0,20.0,30.06,East,90,1.0,1.0,38,0.00,,,0.00,,2013-03-06 15:21:00,
2013-03-06 08:32:00,46.0,21.0,30.07,NNW,338,1.0,2.0,37,0.00,,,0.00,,2013-03-06 15:32:00,
2013-03-06 08:42:00,46.0,21.0,30.07,NNW,338,1.0,2.0,37,0.00,,,0.00,,2013-03-06 15:42:00,
2013-03-06 08:52:00,47.0,21.0,30.06,ENE,75,2.0,2.0,36,0.00,,,0.00,,2013-03-06 15:52:00,
2013-03-06 09:01:00,49.0,23.0,30.06,East,98,2.0,3.0,35,0.00,,,0.00,,2013-03-06 16:01:00,
2013-03-06 09:11:00,49.0,23.0,30.06,East,98,2.0,3.0,35,0.00,,,0.00,,2013-03-06 16:11:00,
2013-03-06 09:21:00,51.0,23.0,30.06,ESE,108,2.0,5.0,33,0.00,,,0.00,,2013-03-06 16:21:00,
2013-03-06 09:32:00,51.0,23.0,30.06,East,101,3.0,5.0,33,0.00,,,0.00,,2013-03-06 16:32:00,
2013-03-06 09:42:00,51.0,23.0,30.06,East,101,3.0,5.0,33,0.00,,,0.00,,2013-03-06 16:42:00,
2013-03-06 09:52:00,53.0,23.0,30.06,SE,144,3.0,6.0,31,0.00,,,0.00,,2013-03-06 16:52:00,
2013-03-06 10:01:00,53.0,24.0,30.06,SSE,147,2.0,8.0,32,0.00,,,0.00,,2013-03-06 17:01:00,
2013-03-06 10:11:00,53.0,24.0,30.06,SSE,147,2.0,8.0,32,0.00,,,0.00,,2013-03-06 17:11:00,
2013-03-06 10:22:00,55.0,24.0,30.05,SSW,210,3.0,6.0,30,0.00,,,0.00,,2013-03-06 17:22:00,
2013-03-06 10:32:00,56.0,24.0,30.05,SSE,153,3.0,7.0,29,0.00,,,0.00,,2013-03-06 17:32:00,
2013-03-06 10:42:00,56.0,24.0,30.05,SSE,153,3.0,7.0,29,0.00,,,0.00,,2013-03-06 17:42:00,
2013-03-06 10:53:00,56.0,24.0,30.05,SSW,202,6.0,8.0,29,0.00,,,0.00,,2013-03-06 17:53:00,
2013-03-06 11:02:00,56.0,24.0,30.04,SSE,156,5.0,8.0,29,0.00,,,0.00,,2013-03-06 18:02:00,
2013-03-06 11:28:00,58.0,25.0,30.04,South,176,3.0,7.0,28,0.00,,,0.00,,2013-03-06 18:28:00,
2013-03-06 11:42:00,58.0,25.0,30.04,SSW,211,3.0,7.0,28,0.00,,,0.00,,2013-03-06 18:42:00,
2013-03-06 11:52:00,58.0,25.0,30.03,SSE,151,5.0,8.0,28,0.00,,,0.00,,2013-03-06 18:52:00,
2013-03-06 12:02:00,60.0,26.0,30.03,SE,143,4.0,9.0,27,0.00,,,0.00,,2013-03-06 19:02:00,
2013-03-06 12:11:00,60.0,26.0,30.03,SE,143,4.0,9.0,27,0.00,,,0.00,,2013-03-06 19:11:00,
2013-03-06 12:22:00,62.0,26.0,30.02,SE,133,4.0,8.0,25,0.00,,,0.00,,2013-03-06 19:22:00,
2013-03-06 12:32:00,62.0,27.0,30.01,SE,145,5.0,9.0,26,0.00,,,0.00,,2013-03-06 19:32:00,
2013-03-06 12:43:00,62.0,27.0,30.01,SE,145,5.0,9.0,26,0.00,,,0.00,,2013-03-06 19:43:00,
2013-03-06 12:53:00,62.0,26.0,30.00,SW,215,6.0,10.0,25,0.00,,,0.00,,2013-03-06 19:53:00,
2013-03-06 13:01:00,64.0,28.0,29.99,SE,141,4.0,10.0,26,0.00,,,0.00,,2013-03-06 20:01:00,
2013-03-06 13:12:00,64.0,28.0,29.99,SE,141,4.0,10.0,26,0.00,,,0.00,,2013-03-06 20:12:00,
2013-03-06 13:22:00,65.0,28.0,29.98,South,171,9.0,14.0,25,0.00,,,0.00,,2013-03-06 20:22:00,
2013-03-06 13:32:00,65.0,27.0,29.97,SSW,195,8.0,10.0,24,0.00,,,0.00,,2013-03-06 20:32:00,
2013-03-06 13:42:00,65.0,27.0,29.97,SSW,195,8.0,10.0,24,0.00,,,0.00,,2013-03-06 20:42:00,
2013-03-06 13:53:00,65.0,28.0,29.96,SSE,156,7.0,14.0,25,0.00,,,0.00,,2013-03-06 20:53:00,
2013-03-06 14:02:00,65.0,28.0,29.95,SE,124,6.0,14.0,25,0.00,,,0.00,,2013-03-06 21:02:00,
2013-03-06 14:11:00,65.0,28.0,29.95,SE,124,6.0,14.0,25,0.00,,,0.00,,2013-03-06 21:11:00,
2013-03-06 14:22:00,66.0,28.0,29.94,South,175,3.0,14.0,24,0.00,,,0.00,,2013-03-06 21:22:00,
2013-03-06 14:32:00,66.0,28.0,29.94,SSW,205,5.0,10.0,24,0.00,,,0.00,,2013-03-06 21:32:00,
2013-03-06 14:42:00,66.0,28.0,29.94,SSW,205,5.0,10.0,24,0.00,,,0.00,,2013-03-06 21:42:00,
2013-03-06 14:52:00,66.0,27.0,29.94,SSE,164,6.0,14.0,23,0.00,,,0.00,,2013-03-06 21:52:00,
2013-03-06 15:01:00,66.0,27.0,29.94,South,172,9.0,14.0,23,0.00,,,0.00,,2013-03-06 22:01:00,
2013-03-06 15:11:00,66.0,27.0,29.94,South,172,9.0,14.0,23,0.00,,,0.00,,2013-03-06 22:11:00,
2013-03-06 15:22:00,66.0,27.0,29.93,South,179,7.0,13.0,23,0.00,,,0.00,,2013-03-06 22:22:00,
2013-03-06 15:32:00,65.0,26.0,29.93,South,170,6.0,14.0,23,0.00,,,0.00,,2013-03-06 22:32:00,
2013-03-06 15:42:00,65.0,26.0,29.93,South,170,6.0,14.0,23,0.00,,,0.00,,2013-03-06 22:42:00,
2013-03-06 15:52:00,66.0,27.0,29.93,South,173,7.0,12.0,23,0.00,,,0.00,,2013-03-06 22:52:00,
2013-03-06 16:01:00,65.0,26.0,29.92,SE,144,7.0,12.0,23,0.00,,,0.00,,2013-03-06 23:01:00,
2013-03-06 16:11:00,65.0,26.0,29.92,SE,144,7.0,12.0,23,0.00,,,0.00,,2013-03-06 23:11:00,
2013-03-06 16:21:00,65.0,26.0,29.92,South,179,6.0,14.0,23,0.00,,,0.00,,2013-03-06 23:21:00,
2013-03-06 16:32:00,65.0,26.0,29.91,SSE,159,7.0,13.0,23,0.00,,,0.00,,2013-03-06 23:32:00,
2013-03-06 16:42:00,65.0,26.0,29.91,SSE,159,7.0,13.0,23,0.00,,,0.00,,2013-03-06 23:42:00,
2013-03-06 16:52:00,64.0,26.0,29.91,SSE,160,7.0,10.0,24,0.00,,,0.00,,2013-03-06 23:52:00,
2013-03-06 17:01:00,63.0,26.0,29.90,South,178,6.0,8.0,24,0.00,,,0.00,,2013-03-07 00:01:00,
2013-03-06 17:11:00,63.0,26.0,29.90,South,178,6.0,8.0,24,0.00,,,0.00,,2013-03-07 00:11:00,
2013-03-06 17:21:00,63.0,26.0,29.90,SSE,158,4.0,6.0,24,0.00,,,0.00,,2013-03-07 00:21:00,
2013-03-06 17:32:00,63.0,26.0,29.90,South,181,4.0,8.0,24,0.00,,,0.00,,2013-03-07 00:32:00,
2013-03-06 17:42:00,63.0,26.0,29.90,South,181,4.0,8.0,24,0.00,,,0.00,,2013-03-07 00:42:00,
2013-03-06 17:52:00,62.0,25.0,29.89,SSE,158,6.0,8.0,24,0.00,,,0.00,,2013-03-07 00:52:00,
2013-03-06 18:01:00,62.0,25.0,29.89,SSE,155,4.0,7.0,24,0.00,,,0.00,,2013-03-07 01:01:00,
2013-03-06 18:11:00,62.0,25.0,29.89,SSE,155,4.0,7.0,24,0.00,,,0.00,,2013-03-07 01:11:00,
2013-03-06 18:21:00,60.0,23.0,29.90,South,174,5.0,7.0,24,0.00,,,0.00,,2013-03-07 01:21:00,
2013-03-06 18:31:00,59.0,22.0,29.90,West,281,3.0,7.0,24,0.00,,,0.00,,2013-03-07 01:31:00,
2013-03-06 18:42:00,59.0,22.0,29.90,West,281,3.0,7.0,24,0.00,,,0.00,,2013-03-07 01:42:00,
2013-03-06 18:52:00,58.0,22.0,29.91,SW,222,4.0,6.0,25,0.00,,,0.00,,2013-03-07 01:52:00,
2013-03-06 19:01:00,58.0,22.0,29.90,SW,234,1.0,5.0,25,0.00,,,0.00,,2013-03-07 02:01:00,
2013-03-06 19:11:00,58.0,22.0,29.90,SW,234,1.0,5.0,25,0.00,,,0.00,,2013-03-07 02:11:00,
2013-03-06 19:21:00,54.0,21.0,29.91,NW,315,0.0,1.0,27,0.00,,,0.00,,2013-03-07 02:21:00,
2013-03-06 19:32:00,52.0,19.0,29.91,WNW,285,1.0,3.0,27,0.00,,,0.00,,2013-03-07 02:32:00,
2013-03-06 19:41:00,52.0,19.0,29.91,WNW,285,1.0,3.0,27,0.00,,,0.00,,2013-03-07 02:41:00,
2013-03-06 19:52:00,52.0,19.0,29.91,WNW,285,1.0,3.0,27,0.00,,,0.00,,2013-03-07 02:52:00,
2013-03-06 20:02:00,49.0,18.0,29.92,West,270,1.0,3.0,29,0.00,,,0.00,,2013-03-07 03:02:00,
2013-03-06 20:11:00,49.0,18.0,29.92,West,270,1.0,3.0,29,0.00,,,0.00,,2013-03-07 03:11:00,
2013-03-06 20:21:00,48.0,18.0,29.92,West,270,2.0,2.0,30,0.00,,,0.00,,2013-03-07 03:21:00,
2013-03-06 20:32:00,47.0,17.0,29.92,WNW,292,1.0,2.0,30,0.00,,,0.00,,2013-03-07 03:32:00,
2013-03-06 20:42:00,47.0,17.0,29.92,WNW,292,1.0,2.0,30,0.00,,,0.00,,2013-03-07 03:42:00,
2013-03-06 20:52:00,45.0,17.0,29.92,West,270,3.0,3.0,32,0.00,,,0.00,,2013-03-07 03:52:00,
2013-03-06 21:01:00,45.0,18.0,29.92,West,279,2.0,3.0,33,0.00,,,0.00,,2013-03-07 04:01:00,
2013-03-06 21:11:00,45.0,18.0,29.92,West,279,2.0,3.0,33,0.00,,,0.00,,2013-03-07 04:11:00,
2013-03-06 21:21:00,44.0,16.0,29.93,WSW,247,2.0,2.0,32,0.00,,,0.00,,2013-03-07 04:21:00,
2013-03-06 21:31:00,43.0,15.0,29.93,SW,227,1.0,5.0,32,0.00,,,0.00,,2013-03-07 04:31:00,
2013-03-06 21:42:00,43.0,15.0,29.93,SW,227,1.0,5.0,32,0.00,,,0.00,,2013-03-07 04:42:00,
2013-03-06 21:52:00,45.0,15.0,29.93,WSW,248,3.0,5.0,30,0.00,,,0.00,,2013-03-07 04:52:00,
2013-03-06 22:01:00,45.0,15.0,29.93,WSW,244,4.0,5.0,29,0.00,,,0.00,,2013-03-07 05:01:00,
2013-03-06 22:12:00,45.0,15.0,29.93,WSW,244,4.0,5.0,29,0.00,,,0.00,,2013-03-07 05:12:00,
2013-03-06 22:22:00,45.0,15.0,29.94,WSW,248,2.0,5.0,29,0.00,,,0.00,,2013-03-07 05:22:00,
2013-03-06 22:32:00,44.0,14.0,29.94,WSW,248,1.0,2.0,29,0.00,,,0.00,,2013-03-07 05:32:00,
2013-03-06 22:42:00,44.0,14.0,29.94,WSW,248,1.0,2.0,29,0.00,,,0.00,,2013-03-07 05:42:00,
2013-03-06 22:52:00,44.0,14.0,29.95,WSW,240,3.0,3.0,29,0.00,,,0.00,,2013-03-07 05:52:00,
2013-03-06 23:01:00,44.0,14.0,29.95,West,270,2.0,5.0,29,0.00,,,0.00,,2013-03-07 06:01:00,
2013-03-06 23:11:00,44.0,14.0,29.95,West,270,2.0,5.0,29,0.00,,,0.00,,2013-03-07 06:11:00,
2013-03-06 23:21:00,46.0,16.0,29.94,WSW,248,6.0,7.0,29,0.00,,,0.00,,2013-03-07 06:21:00,
2013-03-06 23:32:00,48.0,16.0,29.94,West,259,4.0,7.0,27,0.00,,,0.00,,2013-03-07 06:32:00,
2013-03-06 23:42:00,48.0,16.0,29.94,West,259,4.0,7.0,27,0.00,,,0.00,,2013-03-07 06:42:00,
2013-03-06 23:52:00,46.0,14.0,29.94,WSW,255,5.0,6.0,27,0.00,,,0.00,,2013-03-07 06:52:00,